SCP
0 -0 -0 -0 -0 -0 0 0 -0 -0 -0 -0 -0 0 0 0 -0 -0 -0 -0 0 0
0 -0 -0 -0 -0 -0 0 0 0 -0 -0 -0 0 -0 -0 -0 -0 -0 -0 -0 -0 -0
0 0 0 0 -0 -0 -0 0 0 0 -0 -0 -0 -0 -0 -0 -0 -0 -0 -0 -0 -0
0 0 0 0 0 -0 0 -0 -0 0 0 0 -0 -0 -0 0 0 0 -0 -0 -0 -0
0 0 0 0 0 0 -0 0 -0 -0 -0 -0 0 0 -0 -0 -0 0 0 -0 -0 -0
0 0 0 0 0 0 0 0 0 -0 -0 -0 0 0 0 0 0 -0 0 -0 -0 -0
0 0 0 0 0 0 0 0 0 0 0 -0 0 0 0 0 0 0 0 -0 -0 -0
0 0 0 0 0 0 0 0 0 0 0 0 -0 -0 0 0 0 0 0 0 0 -0
0 0 0 0 0 0 0 0 0 0 0 0 0 0 0 0 0 0 0 0 0 0
0 0 0 0 0 0 0 0 0 0 0 0 0 0 0 0 0 0 0 0 0 0
0 0 0 0 0 0 0 0 0 0 0 0 0 0 0 0 0 0 0 0 0 0
1 0 0 1 1 0 0 0 0 0 0 0 0 0 0 0 0 0 -0 0 0 0
0 1 1 1 1 1 1 0 0 0 0 0 0 0 0 0 1 0 0 0 0 -0
0 0 1 1 1 1 1 1 1 1 0 0 1 1 0 0 1 0 0 0 0 0
Wind_Speed_500mb
61 71 63 57 49 48 41 33 26 29 31 22 24 32 38 41 35 33 28 26 17 16
61 65 69 63 56 50 49 44 34 30 29 30 26 29 29 33 36 38 35 30 26 25
59 61 68 67 64 55 49 54 47 37 32 31 30 28 30 29 31 37 41 40 37 33
63 62 64 71 71 64 49 49 48 42 41 37 36 34 31 31 32 35 37 43 46 43
68 65 65 72 77 73 61 52 51 49 44 41 40 45 43 35 35 36 35 36 38 36
80 75 71 70 77 80 73 60 56 57 57 52 47 45 51 44 37 38 38 36 36 32
86 80 77 70 76 80 82 76 66 64 62 60 52 49 47 47 39 37 39 39 42 40
83 80 78 75 74 80 82 86 83 74 72 68 67 63 59 51 46 40 36 38 41 42
90 83 79 80 74 73 83 87 90 90 84 79 73 67 63 61 56 53 49 47 45 45
81 84 85 78 81 76 73 80 95 95 96 94 89 82 75 70 65 62 57 55 54 51
76 74 77 76 79 77 78 80 83 93 103 101 99 93 87 79 76 78 75 69 65 61
80 70 71 78 76 72 72 80 88 88 91 98 103 103 98 89 86 86 85 80 75 67
62 68 69 73 64 65 62 69 74 81 86 90 91 92 93 91 92 89 88 84 79 73
45 61 74 73 63 58 56 59 71 71 72 74 81 82 83 81 82 86 85 81 78 74
Wind_Direction_500mb
217 219 223 220 222 222 226 227 223 225 222 226 219 219 216 226 221 218 221 220 223 218
217 217 219 220 220 229 233 236 237 242 234 225 227 219 222 224 230 225 227 230 232 228
220 221 218 219 222 228 234 237 240 241 235 224 230 233 230 233 227 228 229 235 239 238
224 222 222 220 222 227 234 229 234 233 233 234 237 240 241 237 235 238 234 234 240 243
228 226 224 224 222 224 228 231 230 231 234 239 246 248 249 252 242 239 240 232 236 237
229 231 229 227 226 222 225 230 230 233 238 240 249 256 248 252 254 248 246 237 239 240
232 232 234 232 229 226 226 228 232 234 239 241 249 253 246 247 254 250 250 251 248 249
232 237 234 234 235 230 228 229 232 236 240 245 250 250 251 251 253 256 262 265 262 257
238 237 238 235 233 236 232 231 233 236 239 242 247 250 251 251 254 259 264 269 270 269
240 238 239 237 237 236 238 236 236 237 239 241 245 247 250 253 255 259 262 268 272 271
241 241 242 242 240 239 240 242 242 241 241 242 244 245 247 252 255 260 264 267 268 270
243 245 244 242 243 243 242 243 244 244 245 245 245 246 247 247 250 255 260 263 264 265
238 250 255 251 244 248 251 252 246 245 247 247 248 248 247 247 247 251 256 260 259 257
234 229 243 252 249 247 250 252 252 246 247 249 249 249 247 247 246 246 252 254 257 258
Wind_Speed_850mb
61 71 63 57 49 48 41 33 26 29 31 22 24 32 38 41 35 33 28 26 17 16
61 65 69 63 56 50 49 44 34 30 29 30 26 29 29 33 36 38 35 30 26 25
59 61 68 67 64 55 49 54 47 37 32 31 30 28 30 29 31 37 41 40 37 33
63 62 64 71 71 64 49 49 48 42 41 37 36 34 31 31 32 35 37 43 46 43
68 65 65 72 77 73 61 52 51 49 44 41 40 45 43 35 35 36 35 36 38 36
80 75 71 70 77 80 73 60 56 57 57 52 47 45 51 44 37 38 38 36 36 32
86 80 77 70 76 80 82 76 66 64 62 60 52 49 47 47 39 37 39 39 42 40
83 80 78 75 74 80 82 86 83 74 72 68 67 63 59 51 46 40 36 38 41 42
90 83 79 80 74 73 83 87 90 90 84 79 73 67 63 61 56 53 49 47 45 45
81 84 85 78 81 76 73 80 95 95 96 94 89 82 75 70 65 62 57 55 54 51
76 74 77 76 79 77 78 80 83 93 103 101 99 93 87 79 76 78 75 69 65 61
80 70 71 78 76 72 72 80 88 88 91 98 103 103 98 89 86 86 85 80 75 67
62 68 69 73 64 65 62 69 74 81 86 90 91 92 93 91 92 89 88 84 79 73
45 61 74 73 63 58 56 59 71 71 72 74 81 82 83 81 82 86 85 81 78 74
Wind_Direction_850mb
217 219 223 220 222 222 226 227 223 225 222 226 219 219 216 226 221 218 221 220 223 218
217 217 219 220 220 229 233 236 237 242 234 225 227 219 222 224 230 225 227 230 232 228
220 221 218 219 222 228 234 237 240 241 235 224 230 233 230 233 227 228 229 235 239 238
224 222 222 220 222 227 234 229 234 233 233 234 237 240 241 237 235 238 234 234 240 243
228 226 224 224 222 224 228 231 230 231 234 239 246 248 249 252 242 239 240 232 236 237
229 231 229 227 226 222 225 230 230 233 238 240 249 256 248 252 254 248 246 237 239 240
232 232 234 232 229 226 226 228 232 234 239 241 249 253 246 247 254 250 250 251 248 249
232 237 234 234 235 230 228 229 232 236 240 245 250 250 251 251 253 256 262 265 262 257
238 237 238 235 233 236 232 231 233 236 239 242 247 250 251 251 254 259 264 269 270 269
240 238 239 237 237 236 238 236 236 237 239 241 245 247 250 253 255 259 262 268 272 271
241 241 242 242 240 239 240 242 242 241 241 242 244 245 247 252 255 260 264 267 268 270
243 245 244 242 243 243 242 243 244 244 245 245 245 246 247 247 250 255 260 263 264 265
238 250 255 251 244 248 251 252 246 245 247 247 248 248 247 247 247 251 256 260 259 257
234 229 243 252 249 247 250 252 252 246 247 249 249 249 247 247 246 246 252 254 257 258